Time,TemperatureF,DewpointF,PressureIn,WindDirection,WindDirectionDegrees,WindSpeedMPH,WindSpeedGustMPH,Humidity,HourlyPrecipIn,Conditions,Clouds,dailyrainin,SolarRadiationWatts/m^2,SoftwareType,DateUTC
2013-01-18 00:01:00,75.2,69.7,29.65,NNW,338,0.0,-999.0,83,0.00,,,0.20,0,Wunderground v.1.15,2013-01-17 13:01:00,
2013-01-18 00:04:00,75.3,69.4,29.65,NNW,337,0.0,0.0,82,0.00,,,0.00,0,Wunderground v.1.15,2013-01-17 13:04:00,
2013-01-18 00:06:00,75.2,69.7,29.65,NNW,338,0.0,-999.0,83,0.00,,,0.20,0,Wunderground v.1.15,2013-01-17 13:06:00,
2013-01-18 00:09:00,75.2,69.7,29.65,NNW,338,0.0,-999.0,83,0.00,,,0.20,0,Wunderground v.1.15,2013-01-17 13:09:00,
2013-01-18 00:11:00,75.2,69.7,29.65,NNW,338,0.0,-999.0,83,0.00,,,0.20,0,Wunderground v.1.15,2013-01-17 13:11:00,
2013-01-18 00:14:00,75.2,69.3,29.65,NNW,337,0.0,0.0,82,0.00,,,0.00,0,Wunderground v.1.15,2013-01-17 13:14:00,
2013-01-18 00:16:00,75.2,69.7,29.65,NNW,338,0.0,-999.0,83,0.00,,,0.20,0,Wunderground v.1.15,2013-01-17 13:16:00,
2013-01-18 00:19:00,75.1,69.2,29.65,NNW,337,0.0,0.0,82,0.00,,,0.00,0,Wunderground v.1.15,2013-01-17 13:19:00,
2013-01-18 00:21:00,75.2,69.7,29.65,NNW,338,0.0,-999.0,83,0.00,,,0.20,0,Wunderground v.1.15,2013-01-17 13:21:00,
2013-01-18 00:24:00,75.1,69.2,29.65,NNW,337,0.0,0.0,82,0.00,,,0.00,0,Wunderground v.1.15,2013-01-17 13:24:00,
2013-01-18 00:26:00,75.2,69.7,29.65,NNW,338,0.0,-999.0,83,0.00,,,0.20,0,Wunderground v.1.15,2013-01-17 13:26:00,
2013-01-18 00:29:00,75.0,69.5,29.65,NNW,337,0.0,0.0,83,0.00,,,0.00,0,Wunderground v.1.15,2013-01-17 13:29:00,
2013-01-18 00:31:00,75.2,69.7,29.65,NNW,338,0.0,-999.0,83,0.00,,,0.20,0,Wunderground v.1.15,2013-01-17 13:31:00,
2013-01-18 00:34:00,75.2,69.7,29.65,NNW,338,0.0,-999.0,83,0.00,,,0.20,0,Wunderground v.1.15,2013-01-17 13:34:00,
2013-01-18 00:36:00,75.2,69.7,29.65,NNW,338,0.0,-999.0,83,0.00,,,0.20,0,Wunderground v.1.15,2013-01-17 13:36:00,
2013-01-18 00:39:00,75.0,69.5,29.65,NNW,337,0.0,0.0,83,0.00,,,0.00,0,Wunderground v.1.15,2013-01-17 13:39:00,
2013-01-18 00:41:00,75.2,69.7,29.65,NNW,338,0.0,-999.0,83,0.00,,,0.20,0,Wunderground v.1.15,2013-01-17 13:41:00,
2013-01-18 00:44:00,75.2,69.7,29.65,NNW,338,0.0,-999.0,83,0.00,,,0.20,0,Wunderground v.1.15,2013-01-17 13:44:00,
2013-01-18 00:46:00,75.0,69.5,29.61,NNW,338,0.0,-999.0,83,0.00,,,0.20,0,Wunderground v.1.15,2013-01-17 13:46:00,
2013-01-18 00:49:00,75.0,69.8,29.65,NNW,337,0.0,0.0,84,0.00,,,0.00,0,Wunderground v.1.15,2013-01-17 13:49:00,
2013-01-18 00:51:00,75.0,69.5,29.61,NNW,338,0.0,-999.0,83,0.00,,,0.20,0,Wunderground v.1.15,2013-01-17 13:51:00,
2013-01-18 00:54:00,74.9,69.4,29.65,NNW,337,0.0,0.0,83,0.00,,,0.00,0,Wunderground v.1.15,2013-01-17 13:54:00,
2013-01-18 00:56:00,75.0,69.5,29.61,NNW,338,0.0,-999.0,83,0.00,,,0.20,0,Wunderground v.1.15,2013-01-17 13:56:00,
2013-01-18 00:59:00,74.9,69.4,29.61,NNW,337,0.0,0.0,83,0.00,,,0.00,0,Wunderground v.1.15,2013-01-17 13:59:00,
2013-01-18 01:01:00,75.0,69.5,29.61,NNW,338,0.0,-999.0,83,0.00,,,0.20,0,Wunderground v.1.15,2013-01-17 14:01:00,
2013-01-18 01:04:00,74.7,69.2,29.61,NNW,337,0.0,0.0,83,0.00,,,0.00,0,Wunderground v.1.15,2013-01-17 14:04:00,
2013-01-18 01:06:00,75.0,69.5,29.61,NNW,338,0.0,-999.0,83,0.00,,,0.20,0,Wunderground v.1.15,2013-01-17 14:06:00,
2013-01-18 01:09:00,74.6,69.4,29.64,NNW,337,0.0,1.0,84,0.00,,,0.00,0,Wunderground v.1.15,2013-01-17 14:09:00,
2013-01-18 01:11:00,75.0,69.5,29.61,NNW,338,0.0,-999.0,83,0.00,,,0.20,0,Wunderground v.1.15,2013-01-17 14:11:00,
2013-01-18 01:16:00,74.5,69.3,29.61,NNW,338,0.0,-999.0,84,0.00,,,0.20,0,Wunderground v.1.15,2013-01-17 14:16:00,
2013-01-18 01:19:00,74.4,69.2,29.61,NNW,337,0.0,0.0,84,0.00,,,0.00,0,Wunderground v.1.15,2013-01-17 14:19:00,
2013-01-18 01:21:00,74.5,69.3,29.61,NNW,338,0.0,-999.0,84,0.00,,,0.20,0,Wunderground v.1.15,2013-01-17 14:21:00,
2013-01-18 01:24:00,74.4,69.2,29.61,NNW,337,0.0,0.0,84,0.00,,,0.00,0,Wunderground v.1.15,2013-01-17 14:24:00,
2013-01-18 01:26:00,74.5,69.3,29.61,NNW,338,0.0,-999.0,84,0.00,,,0.20,0,Wunderground v.1.15,2013-01-17 14:26:00,
2013-01-18 01:29:00,74.3,69.1,29.61,NNW,337,0.0,0.0,84,0.00,,,0.00,0,Wunderground v.1.15,2013-01-17 14:29:00,
2013-01-18 01:31:00,74.5,69.3,29.61,NNW,338,0.0,-999.0,84,0.00,,,0.20,0,Wunderground v.1.15,2013-01-17 14:31:00,
2013-01-18 01:36:00,74.5,69.3,29.61,NNW,338,0.0,-999.0,84,0.00,,,0.20,0,Wunderground v.1.15,2013-01-17 14:36:00,
2013-01-18 01:39:00,74.2,69.4,29.60,NNW,337,0.0,0.0,85,0.00,,,0.00,0,Wunderground v.1.15,2013-01-17 14:39:00,
2013-01-18 01:41:00,74.5,69.3,29.61,NNW,338,0.0,-999.0,84,0.00,,,0.20,0,Wunderground v.1.15,2013-01-17 14:41:00,
2013-01-18 01:46:00,74.1,69.6,29.59,NNW,338,0.0,-999.0,86,0.00,,,0.20,0,Wunderground v.1.15,2013-01-17 14:46:00,
2013-01-18 01:49:00,74.0,69.5,29.60,NNW,337,0.0,0.0,86,0.00,,,0.00,0,Wunderground v.1.15,2013-01-17 14:49:00,
2013-01-18 01:51:00,74.1,69.6,29.59,NNW,338,0.0,-999.0,86,0.00,,,0.20,0,Wunderground v.1.15,2013-01-17 14:51:00,
2013-01-18 01:54:00,74.0,69.5,29.60,NNW,337,0.0,0.0,86,0.00,,,0.00,0,Wunderground v.1.15,2013-01-17 14:54:00,
2013-01-18 01:56:00,74.1,69.6,29.59,NNW,338,0.0,-999.0,86,0.00,,,0.20,0,Wunderground v.1.15,2013-01-17 14:56:00,
2013-01-18 01:59:00,74.0,69.5,29.59,NNW,337,0.0,0.0,86,0.00,,,0.00,0,Wunderground v.1.15,2013-01-17 14:59:00,
2013-01-18 02:01:00,74.1,69.6,29.59,NNW,338,0.0,-999.0,86,0.00,,,0.20,0,Wunderground v.1.15,2013-01-17 15:01:00,
2013-01-18 02:04:00,73.9,69.8,29.59,NNW,337,0.0,0.0,87,0.00,,,0.00,0,Wunderground v.1.15,2013-01-17 15:04:00,
2013-01-18 02:06:00,74.1,69.6,29.59,NNW,338,0.0,-999.0,86,0.00,,,0.20,0,Wunderground v.1.15,2013-01-17 15:06:00,
2013-01-18 02:11:00,74.1,69.6,29.59,NNW,338,0.0,-999.0,86,0.00,,,0.20,0,Wunderground v.1.15,2013-01-17 15:11:00,
2013-01-18 02:14:00,73.9,69.8,29.60,NNW,337,0.0,0.0,87,0.00,,,0.00,0,Wunderground v.1.15,2013-01-17 15:14:00,
2013-01-18 02:16:00,73.9,70.1,29.58,NNW,338,0.0,-999.0,88,0.00,,,0.20,0,Wunderground v.1.15,2013-01-17 15:16:00,
2013-01-18 02:19:00,73.9,70.1,29.60,NNW,337,0.0,0.0,88,0.00,,,0.00,0,Wunderground v.1.15,2013-01-17 15:19:00,
2013-01-18 02:21:00,73.9,70.1,29.58,NNW,338,0.0,-999.0,88,0.00,,,0.20,0,Wunderground v.1.15,2013-01-17 15:21:00,
2013-01-18 02:24:00,73.9,69.8,29.58,NNW,337,0.0,0.0,87,0.00,,,0.00,0,Wunderground v.1.15,2013-01-17 15:24:00,
2013-01-18 02:26:00,73.9,70.1,29.58,NNW,338,0.0,-999.0,88,0.00,,,0.20,0,Wunderground v.1.15,2013-01-17 15:26:00,
2013-01-18 02:31:00,73.9,70.1,29.58,NNW,338,0.0,-999.0,88,0.00,,,0.20,0,Wunderground v.1.15,2013-01-17 15:31:00,
2013-01-18 02:34:00,73.7,69.9,29.58,NNW,337,0.0,0.0,88,0.00,,,0.00,0,Wunderground v.1.15,2013-01-17 15:34:00,
2013-01-18 02:36:00,73.9,70.1,29.58,NNW,338,0.0,-999.0,88,0.00,,,0.20,0,Wunderground v.1.15,2013-01-17 15:36:00,
2013-01-18 02:41:00,73.9,70.1,29.58,NNW,338,0.0,-999.0,88,0.00,,,0.20,0,Wunderground v.1.15,2013-01-17 15:41:00,
2013-01-18 02:44:00,73.6,69.8,29.58,NNW,337,0.0,0.0,88,0.00,,,0.00,0,Wunderground v.1.15,2013-01-17 15:44:00,
2013-01-18 02:46:00,73.5,69.7,29.58,N/A,-737280,0.0,-999.0,88,0.00,,,0.20,0,Wunderground v.1.15,2013-01-17 15:46:00,
2013-01-18 02:49:00,73.5,69.7,29.58,NNW,337,0.0,0.0,88,0.00,,,0.00,0,Wunderground v.1.15,2013-01-17 15:49:00,
2013-01-18 02:51:00,73.5,69.7,29.58,N/A,-737280,0.0,-999.0,88,0.00,,,0.20,0,Wunderground v.1.15,2013-01-17 15:51:00,
2013-01-18 02:54:00,73.3,69.5,29.58,NNW,337,0.0,0.0,88,0.00,,,0.00,0,Wunderground v.1.15,2013-01-17 15:54:00,
2013-01-18 02:56:00,73.5,69.7,29.58,N/A,-737280,0.0,-999.0,88,0.00,,,0.20,0,Wunderground v.1.15,2013-01-17 15:56:00,
2013-01-18 02:59:00,73.2,69.4,29.58,NNW,337,0.0,0.0,88,0.00,,,0.00,0,Wunderground v.1.15,2013-01-17 15:59:00,
2013-01-18 03:01:00,73.5,69.7,29.58,N/A,-737280,0.0,-999.0,88,0.00,,,0.20,0,Wunderground v.1.15,2013-01-17 16:01:00,
2013-01-18 03:06:00,73.5,69.7,29.58,N/A,-737280,0.0,-999.0,88,0.00,,,0.20,0,Wunderground v.1.15,2013-01-17 16:06:00,
2013-01-18 03:09:00,73.1,69.7,29.58,NNW,337,0.0,0.0,89,0.00,,,0.00,0,Wunderground v.1.15,2013-01-17 16:09:00,
2013-01-18 03:11:00,73.5,69.7,29.58,N/A,-737280,0.0,-999.0,88,0.00,,,0.20,0,Wunderground v.1.15,2013-01-17 16:11:00,
2013-01-18 03:14:00,73.1,69.7,29.58,NNW,337,0.0,0.0,89,0.00,,,0.00,0,Wunderground v.1.15,2013-01-17 16:14:00,
2013-01-18 03:16:00,73.1,69.7,29.58,N/A,-737280,0.0,-999.0,89,0.00,,,0.20,0,Wunderground v.1.15,2013-01-17 16:16:00,
2013-01-18 03:19:00,73.1,69.7,29.58,NNW,337,0.0,0.0,89,0.00,,,0.00,0,Wunderground v.1.15,2013-01-17 16:19:00,
2013-01-18 03:21:00,73.1,69.7,29.58,N/A,-737280,0.0,-999.0,89,0.00,,,0.20,0,Wunderground v.1.15,2013-01-17 16:21:00,
2013-01-18 03:24:00,73.0,69.6,29.58,NNW,337,0.0,0.0,89,0.00,,,0.00,0,Wunderground v.1.15,2013-01-17 16:24:00,
2013-01-18 03:26:00,73.1,69.7,29.58,N/A,-737280,0.0,-999.0,89,0.00,,,0.20,0,Wunderground v.1.15,2013-01-17 16:26:00,
2013-01-18 03:29:00,72.8,69.4,29.58,NNW,337,0.0,0.0,89,0.00,,,0.00,0,Wunderground v.1.15,2013-01-17 16:29:00,
2013-01-18 03:31:00,73.1,69.7,29.58,N/A,-737280,0.0,-999.0,89,0.00,,,0.20,0,Wunderground v.1.15,2013-01-17 16:31:00,
2013-01-18 03:36:00,73.1,69.7,29.58,N/A,-737280,0.0,-999.0,89,0.00,,,0.20,0,Wunderground v.1.15,2013-01-17 16:36:00,
2013-01-18 03:39:00,72.8,69.7,29.58,NNW,337,0.0,0.0,90,0.00,,,0.00,0,Wunderground v.1.15,2013-01-17 16:39:00,
2013-01-18 03:41:00,73.1,69.7,29.58,N/A,-737280,0.0,-999.0,89,0.00,,,0.20,0,Wunderground v.1.15,2013-01-17 16:41:00,
2013-01-18 03:44:00,72.8,69.7,29.58,NNW,337,0.0,0.0,90,0.00,,,0.00,0,Wunderground v.1.15,2013-01-17 16:44:00,
2013-01-18 03:46:00,72.8,70.0,29.58,NNW,338,0.0,-999.0,91,0.00,,,0.20,0,Wunderground v.1.15,2013-01-17 16:46:00,
2013-01-18 03:49:00,72.7,69.6,29.58,NNW,337,0.0,0.0,90,0.00,,,0.00,0,Wunderground v.1.15,2013-01-17 16:49:00,
2013-01-18 03:51:00,72.8,70.0,29.58,NNW,338,0.0,-999.0,91,0.00,,,0.20,0,Wunderground v.1.15,2013-01-17 16:51:00,
2013-01-18 03:54:00,72.7,69.9,29.58,NNW,337,0.0,0.0,91,0.00,,,0.00,0,Wunderground v.1.15,2013-01-17 16:54:00,
2013-01-18 03:56:00,72.8,70.0,29.58,NNW,338,0.0,-999.0,91,0.00,,,0.20,0,Wunderground v.1.15,2013-01-17 16:56:00,
2013-01-18 03:59:00,72.7,69.9,29.58,NNW,337,0.0,0.0,91,0.00,,,0.00,0,Wunderground v.1.15,2013-01-17 16:59:00,
2013-01-18 04:01:00,72.8,70.0,29.58,NNW,338,0.0,-999.0,91,0.00,,,0.20,0,Wunderground v.1.15,2013-01-17 17:01:00,
2013-01-18 04:06:00,72.8,70.0,29.58,NNW,338,0.0,-999.0,91,0.00,,,0.20,0,Wunderground v.1.15,2013-01-17 17:06:00,
2013-01-18 04:09:00,72.7,69.9,29.58,NNW,337,0.0,0.0,91,0.00,,,0.00,0,Wunderground v.1.15,2013-01-17 17:09:00,
2013-01-18 04:11:00,72.8,70.0,29.58,NNW,338,0.0,-999.0,91,0.00,,,0.20,0,Wunderground v.1.15,2013-01-17 17:11:00,
2013-01-18 04:14:00,72.5,69.7,29.58,NNW,337,0.0,0.0,91,0.00,,,0.00,0,Wunderground v.1.15,2013-01-17 17:14:00,
2013-01-18 04:16:00,72.5,69.7,29.58,NNW,338,0.0,-999.0,91,0.00,,,0.20,0,Wunderground v.1.15,2013-01-17 17:16:00,
2013-01-18 04:19:00,72.5,69.7,29.58,NNW,337,0.0,0.0,91,0.00,,,0.00,0,Wunderground v.1.15,2013-01-17 17:19:00,
2013-01-18 04:21:00,72.5,69.7,29.58,NNW,338,0.0,-999.0,91,0.00,,,0.20,0,Wunderground v.1.15,2013-01-17 17:21:00,
2013-01-18 04:24:00,72.4,69.6,29.58,NNW,337,0.0,0.0,91,0.00,,,0.00,0,Wunderground v.1.15,2013-01-17 17:24:00,
2013-01-18 04:26:00,72.5,69.7,29.58,NNW,338,0.0,-999.0,91,0.00,,,0.20,0,Wunderground v.1.15,2013-01-17 17:26:00,
2013-01-18 04:29:00,72.3,69.5,29.58,NNW,337,0.0,0.0,91,0.00,,,0.00,0,Wunderground v.1.15,2013-01-17 17:29:00,
2013-01-18 04:31:00,72.5,69.7,29.58,NNW,338,0.0,-999.0,91,0.00,,,0.20,0,Wunderground v.1.15,2013-01-17 17:31:00,
2013-01-18 04:34:00,72.1,69.3,29.58,NNW,337,0.0,0.0,91,0.00,,,0.00,0,Wunderground v.1.15,2013-01-17 17:34:00,
2013-01-18 04:36:00,72.5,69.7,29.58,NNW,338,0.0,-999.0,91,0.00,,,0.20,0,Wunderground v.1.15,2013-01-17 17:36:00,
2013-01-18 04:41:00,72.5,69.7,29.58,NNW,338,0.0,-999.0,91,0.00,,,0.20,0,Wunderground v.1.15,2013-01-17 17:41:00,
2013-01-18 04:44:00,72.1,69.6,29.63,NNW,337,0.0,0.0,92,0.00,,,0.00,0,Wunderground v.1.15,2013-01-17 17:44:00,
2013-01-18 04:46:00,72.1,69.6,29.58,N/A,-737280,0.0,-999.0,92,0.00,,,0.20,0,Wunderground v.1.15,2013-01-17 17:46:00,
2013-01-18 04:49:00,72.1,69.6,29.58,NNW,337,0.0,0.0,92,0.00,,,0.00,0,Wunderground v.1.15,2013-01-17 17:49:00,
2013-01-18 04:51:00,72.1,69.6,29.58,N/A,-737280,0.0,-999.0,92,0.00,,,0.20,0,Wunderground v.1.15,2013-01-17 17:51:00,
2013-01-18 04:54:00,72.0,69.5,29.58,NNW,337,0.0,0.0,92,0.00,,,0.00,0,Wunderground v.1.15,2013-01-17 17:54:00,
2013-01-18 04:56:00,72.1,69.6,29.58,N/A,-737280,0.0,-999.0,92,0.00,,,0.20,0,Wunderground v.1.15,2013-01-17 17:56:00,
2013-01-18 04:59:00,71.9,69.4,29.58,NNW,337,0.0,0.0,92,0.00,,,0.00,0,Wunderground v.1.15,2013-01-17 17:59:00,
2013-01-18 05:01:00,72.1,69.6,29.58,N/A,-737280,0.0,-999.0,92,0.00,,,0.20,0,Wunderground v.1.15,2013-01-17 18:01:00,
2013-01-18 05:06:00,72.1,69.6,29.58,N/A,-737280,0.0,-999.0,92,0.00,,,0.20,0,Wunderground v.1.15,2013-01-17 18:06:00,
2013-01-18 05:09:00,71.7,69.3,29.58,NNW,337,0.0,0.0,92,0.00,,,0.00,0,Wunderground v.1.15,2013-01-17 18:09:00,
2013-01-18 05:11:00,72.1,69.6,29.58,N/A,-737280,0.0,-999.0,92,0.00,,,0.20,0,Wunderground v.1.15,2013-01-17 18:11:00,
2013-01-18 05:14:00,71.7,69.3,29.58,NNW,337,0.0,1.0,92,0.00,,,0.00,0,Wunderground v.1.15,2013-01-17 18:14:00,
2013-01-18 05:16:00,71.7,69.3,29.58,NNW,338,0.0,-999.0,92,0.00,,,0.20,0,Wunderground v.1.15,2013-01-17 18:16:00,
2013-01-18 05:19:00,71.7,69.3,29.58,NNW,337,0.0,1.0,92,0.00,,,0.00,0,Wunderground v.1.15,2013-01-17 18:19:00,
2013-01-18 05:21:00,71.7,69.3,29.58,NNW,338,0.0,-999.0,92,0.00,,,0.20,0,Wunderground v.1.15,2013-01-17 18:21:00,
2013-01-18 05:26:00,71.7,69.3,29.58,NNW,338,0.0,-999.0,92,0.00,,,0.20,0,Wunderground v.1.15,2013-01-17 18:26:00,
2013-01-18 05:29:00,71.8,69.3,29.58,North,5,1.0,2.0,92,0.00,,,0.00,0,Wunderground v.1.15,2013-01-17 18:29:00,
2013-01-18 05:31:00,71.7,69.3,29.58,NNW,338,0.0,-999.0,92,0.00,,,0.20,0,Wunderground v.1.15,2013-01-17 18:31:00,
2013-01-18 05:36:00,71.7,69.3,29.58,NNW,338,0.0,-999.0,92,0.00,,,0.20,0,Wunderground v.1.15,2013-01-17 18:36:00,
2013-01-18 05:39:00,71.7,69.3,29.58,North,5,1.0,1.0,92,0.00,,,0.00,0,Wunderground v.1.15,2013-01-17 18:39:00,
2013-01-18 05:41:00,71.7,69.3,29.58,NNW,338,0.0,-999.0,92,0.00,,,0.20,0,Wunderground v.1.15,2013-01-17 18:41:00,
2013-01-18 05:44:00,71.7,69.6,29.58,North,5,0.0,1.0,93,0.00,,,0.00,0,Wunderground v.1.15,2013-01-17 18:44:00,
2013-01-18 05:46:00,71.8,69.7,29.58,North,0,1.0,-999.0,93,0.00,,,0.20,0,Wunderground v.1.15,2013-01-17 18:46:00,
2013-01-18 05:51:00,71.8,69.7,29.58,North,0,1.0,-999.0,93,0.00,,,0.20,0,Wunderground v.1.15,2013-01-17 18:51:00,
2013-01-18 05:54:00,71.8,69.7,29.58,NE,41,1.0,1.0,93,0.00,,,0.00,0,Wunderground v.1.15,2013-01-17 18:54:00,
2013-01-18 05:56:00,71.8,69.7,29.58,North,0,1.0,-999.0,93,0.00,,,0.20,0,Wunderground v.1.15,2013-01-17 18:56:00,
2013-01-18 05:59:00,71.9,69.8,29.58,NE,34,1.0,1.0,93,0.00,,,0.00,0,Wunderground v.1.15,2013-01-17 18:59:00,
2013-01-18 06:01:00,71.8,69.7,29.58,North,0,1.0,-999.0,93,0.00,,,0.20,0,Wunderground v.1.15,2013-01-17 19:01:00,
2013-01-18 06:04:00,71.9,69.8,29.58,NE,34,1.0,2.0,93,0.00,,,0.00,5,Wunderground v.1.15,2013-01-17 19:04:00,
2013-01-18 06:06:00,71.8,69.7,29.58,North,0,1.0,-999.0,93,0.00,,,0.20,0,Wunderground v.1.15,2013-01-17 19:06:00,
2013-01-18 06:09:00,71.9,69.4,29.58,NNE,28,2.0,4.0,92,0.00,,,0.00,7,Wunderground v.1.15,2013-01-17 19:09:00,
2013-01-18 06:11:00,71.8,69.7,29.58,North,0,1.0,-999.0,93,0.00,,,0.20,0,Wunderground v.1.15,2013-01-17 19:11:00,
2013-01-18 06:16:00,72.0,69.5,24.53,NNE,23,2.0,-999.0,92,0.00,,,0.20,10,Wunderground v.1.15,2013-01-17 19:16:00,
2013-01-18 06:19:00,72.1,69.6,29.58,NNE,23,2.0,2.0,92,0.00,,,0.00,14,Wunderground v.1.15,2013-01-17 19:19:00,
2013-01-18 06:21:00,72.0,69.5,24.53,NNE,23,2.0,-999.0,92,0.00,,,0.20,10,Wunderground v.1.15,2013-01-17 19:21:00,
2013-01-18 06:24:00,72.1,69.6,29.58,NNE,19,2.0,2.0,92,0.00,,,0.00,18,Wunderground v.1.15,2013-01-17 19:24:00,
2013-01-18 06:26:00,72.0,69.5,24.53,NNE,23,2.0,-999.0,92,0.00,,,0.20,10,Wunderground v.1.15,2013-01-17 19:26:00,
2013-01-18 06:29:00,72.1,69.6,24.53,NNW,348,2.0,2.0,92,0.00,,,0.00,21,Wunderground v.1.15,2013-01-17 19:29:00,
2013-01-18 06:31:00,72.0,69.5,24.53,NNE,23,2.0,-999.0,92,0.00,,,0.20,10,Wunderground v.1.15,2013-01-17 19:31:00,
2013-01-18 06:36:00,72.0,69.5,24.53,NNE,23,2.0,-999.0,92,0.00,,,0.20,10,Wunderground v.1.15,2013-01-17 19:36:00,
2013-01-18 06:39:00,72.3,69.5,24.53,NNE,26,2.0,2.0,91,0.00,,,0.00,26,Wunderground v.1.15,2013-01-17 19:39:00,
2013-01-18 06:41:00,72.0,69.5,24.53,NNE,23,2.0,-999.0,92,0.00,,,0.20,10,Wunderground v.1.15,2013-01-17 19:41:00,
2013-01-18 06:46:00,72.4,69.3,24.53,NNE,23,1.0,-999.0,90,0.00,,,0.20,29,Wunderground v.1.15,2013-01-17 19:46:00,
2013-01-18 06:49:00,72.5,69.7,24.53,NNE,14,1.0,3.0,91,0.00,,,0.00,32,Wunderground v.1.15,2013-01-17 19:49:00,
2013-01-18 06:51:00,72.4,69.3,24.53,NNE,23,1.0,-999.0,90,0.00,,,0.20,29,Wunderground v.1.15,2013-01-17 19:51:00,
2013-01-18 06:54:00,72.7,69.6,24.53,NNW,340,1.0,2.0,90,0.00,,,0.00,33,Wunderground v.1.15,2013-01-17 19:54:00,
2013-01-18 06:56:00,72.4,69.3,24.53,NNE,23,1.0,-999.0,90,0.00,,,0.20,29,Wunderground v.1.15,2013-01-17 19:56:00,
2013-01-18 06:59:00,72.8,69.7,24.53,NNE,19,1.0,2.0,90,0.00,,,0.00,39,Wunderground v.1.15,2013-01-17 19:59:00,
2013-01-18 07:01:00,72.4,69.3,24.53,NNE,23,1.0,-999.0,90,0.00,,,0.20,29,Wunderground v.1.15,2013-01-17 20:01:00,
2013-01-18 07:04:00,73.0,69.6,24.53,North,355,1.0,1.0,89,0.00,,,0.00,40,Wunderground v.1.15,2013-01-17 20:04:00,
2013-01-18 07:06:00,72.4,69.3,24.53,NNE,23,1.0,-999.0,90,0.00,,,0.20,29,Wunderground v.1.15,2013-01-17 20:06:00,
2013-01-18 07:11:00,72.4,69.3,24.53,NNE,23,1.0,-999.0,90,0.00,,,0.20,29,Wunderground v.1.15,2013-01-17 20:11:00,
2013-01-18 07:14:00,73.8,69.7,24.53,NNW,331,2.0,2.0,87,0.00,,,0.00,44,Wunderground v.1.15,2013-01-17 20:14:00,
2013-01-18 07:16:00,73.9,68.8,24.53,NNE,23,3.0,-999.0,84,0.00,,,0.20,45,Wunderground v.1.15,2013-01-17 20:16:00,
2013-01-18 07:19:00,74.3,69.8,24.53,NNE,15,3.0,3.0,86,0.00,,,0.00,47,Wunderground v.1.15,2013-01-17 20:19:00,
2013-01-18 07:21:00,73.9,68.8,24.53,NNE,23,3.0,-999.0,84,0.00,,,0.20,45,Wunderground v.1.15,2013-01-17 20:21:00,
2013-01-18 07:24:00,74.8,70.0,24.53,NW,323,3.0,3.0,85,0.00,,,0.00,49,Wunderground v.1.15,2013-01-17 20:24:00,
2013-01-18 07:26:00,73.9,68.8,24.53,NNE,23,3.0,-999.0,84,0.00,,,0.20,45,Wunderground v.1.15,2013-01-17 20:26:00,
2013-01-18 07:29:00,75.3,70.1,24.53,NNE,22,3.0,5.0,84,0.00,,,0.00,53,Wunderground v.1.15,2013-01-17 20:29:00,
2013-01-18 07:31:00,73.9,68.8,24.53,NNE,23,3.0,-999.0,84,0.00,,,0.20,45,Wunderground v.1.15,2013-01-17 20:31:00,
2013-01-18 07:36:00,73.9,68.8,24.53,NNE,23,3.0,-999.0,84,0.00,,,0.20,45,Wunderground v.1.15,2013-01-17 20:36:00,
2013-01-18 07:39:00,76.5,70.2,24.53,North,10,3.0,6.0,81,0.00,,,0.00,86,Wunderground v.1.15,2013-01-17 20:39:00,
2013-01-18 07:41:00,73.9,68.8,24.53,NNE,23,3.0,-999.0,84,0.00,,,0.20,45,Wunderground v.1.15,2013-01-17 20:41:00,
2013-01-18 07:46:00,76.9,69.1,24.53,North,0,4.0,-999.0,77,0.00,,,0.20,121,Wunderground v.1.15,2013-01-17 20:46:00,
2013-01-18 07:49:00,77.5,70.5,24.53,NE,34,4.0,5.0,79,0.00,,,0.00,160,Wunderground v.1.15,2013-01-17 20:49:00,
2013-01-18 07:51:00,76.9,69.1,24.53,North,0,4.0,-999.0,77,0.00,,,0.20,121,Wunderground v.1.15,2013-01-17 20:51:00,
2013-01-18 07:54:00,77.9,70.1,24.53,NNE,24,4.0,4.0,77,0.00,,,0.00,102,Wunderground v.1.15,2013-01-17 20:54:00,
2013-01-18 07:56:00,76.9,69.1,24.53,North,0,4.0,-999.0,77,0.00,,,0.20,121,Wunderground v.1.15,2013-01-17 20:56:00,
2013-01-18 07:59:00,78.2,70.4,24.53,West,277,4.0,5.0,77,0.00,,,0.00,84,Wunderground v.1.15,2013-01-17 20:59:00,
2013-01-18 08:01:00,76.9,69.1,24.53,North,0,4.0,-999.0,77,0.00,,,0.20,121,Wunderground v.1.15,2013-01-17 21:01:00,
2013-01-18 08:04:00,78.4,70.2,24.53,North,355,4.0,5.0,76,0.00,,,0.00,76,Wunderground v.1.15,2013-01-17 21:04:00,
2013-01-18 08:06:00,76.9,69.1,24.53,North,0,4.0,-999.0,77,0.00,,,0.20,121,Wunderground v.1.15,2013-01-17 21:06:00,
2013-01-18 08:11:00,76.9,69.1,24.53,North,0,4.0,-999.0,77,0.00,,,0.20,121,Wunderground v.1.15,2013-01-17 21:11:00,
2013-01-18 08:14:00,79.4,70.4,24.53,NNW,336,5.0,6.0,74,0.00,,,0.00,134,Wunderground v.1.15,2013-01-17 21:14:00,
2013-01-18 08:16:00,79.6,69.0,29.58,North,0,5.0,-999.0,70,0.00,,,0.20,177,Wunderground v.1.15,2013-01-17 21:16:00,
2013-01-18 08:19:00,80.2,70.4,24.53,NNW,330,6.0,6.0,72,0.00,,,0.00,185,Wunderground v.1.15,2013-01-17 21:19:00,
2013-01-18 08:21:00,79.6,69.0,29.58,North,0,5.0,-999.0,70,0.00,,,0.20,177,Wunderground v.1.15,2013-01-17 21:21:00,
2013-01-18 08:24:00,80.8,70.5,24.53,North,9,6.0,6.0,71,0.00,,,0.00,306,Wunderground v.1.15,2013-01-17 21:24:00,
2013-01-18 08:26:00,79.6,69.0,29.58,North,0,5.0,-999.0,70,0.00,,,0.20,177,Wunderground v.1.15,2013-01-17 21:26:00,
2013-01-18 08:31:00,79.6,69.0,29.58,North,0,5.0,-999.0,70,0.00,,,0.20,177,Wunderground v.1.15,2013-01-17 21:31:00,
2013-01-18 08:34:00,82.0,70.4,29.58,North,360,5.0,5.0,68,0.00,,,0.00,264,Wunderground v.1.15,2013-01-17 21:34:00,
2013-01-18 08:36:00,79.6,69.0,29.58,North,0,5.0,-999.0,70,0.00,,,0.20,177,Wunderground v.1.15,2013-01-17 21:36:00,
2013-01-18 08:41:00,79.6,69.0,29.58,North,0,5.0,-999.0,70,0.00,,,0.20,177,Wunderground v.1.15,2013-01-17 21:41:00,
2013-01-18 08:44:00,83.3,69.8,29.58,WSW,250,5.0,5.0,64,0.00,,,0.00,190,Wunderground v.1.15,2013-01-17 21:44:00,
2013-01-18 08:46:00,83.4,67.1,29.58,NNW,338,5.0,-999.0,58,0.00,,,0.20,165,Wunderground v.1.15,2013-01-17 21:46:00,
2013-01-18 08:49:00,84.2,69.3,29.58,NNE,28,4.0,5.0,61,0.00,,,0.00,207,Wunderground v.1.15,2013-01-17 21:49:00,
2013-01-18 08:51:00,83.4,67.1,29.58,NNW,338,5.0,-999.0,58,0.00,,,0.20,165,Wunderground v.1.15,2013-01-17 21:51:00,
2013-01-18 08:54:00,84.9,69.9,29.58,NW,314,4.0,4.0,61,0.00,,,0.00,109,Wunderground v.1.15,2013-01-17 21:54:00,
2013-01-18 08:56:00,83.4,67.1,29.58,NNW,338,5.0,-999.0,58,0.00,,,0.20,165,Wunderground v.1.15,2013-01-17 21:56:00,
2013-01-18 08:59:00,85.7,69.2,29.58,WNW,298,5.0,9.0,58,0.00,,,0.00,202,Wunderground v.1.15,2013-01-17 21:59:00,
2013-01-18 09:01:00,83.4,67.1,29.58,NNW,338,5.0,-999.0,58,0.00,,,0.20,165,Wunderground v.1.15,2013-01-17 22:01:00,
2013-01-18 09:04:00,86.5,68.9,29.58,North,349,5.0,8.0,56,0.00,,,0.00,519,Wunderground v.1.15,2013-01-17 22:04:00,
2013-01-18 09:06:00,83.4,67.1,29.58,NNW,338,5.0,-999.0,58,0.00,,,0.20,165,Wunderground v.1.15,2013-01-17 22:06:00,
2013-01-18 09:11:00,83.4,67.1,29.58,NNW,338,5.0,-999.0,58,0.00,,,0.20,165,Wunderground v.1.15,2013-01-17 22:11:00,
2013-01-18 09:14:00,88.5,68.1,29.58,WNW,302,5.0,5.0,51,0.00,,,0.00,564,Wunderground v.1.15,2013-01-17 22:14:00,
2013-01-18 09:16:00,88.3,64.9,29.58,NW,315,6.0,-999.0,46,0.00,,,0.20,563,Wunderground v.1.15,2013-01-17 22:16:00,
2013-01-18 09:19:00,89.2,67.5,29.58,WNW,295,5.0,9.0,49,0.00,,,0.00,587,Wunderground v.1.15,2013-01-17 22:19:00,
2013-01-18 09:21:00,88.3,64.9,29.58,NW,315,6.0,-999.0,46,0.00,,,0.20,563,Wunderground v.1.15,2013-01-17 22:21:00,
2013-01-18 09:24:00,89.7,67.4,29.58,North,350,6.0,6.0,48,0.00,,,0.00,603,Wunderground v.1.15,2013-01-17 22:24:00,
2013-01-18 09:26:00,88.3,64.9,29.58,NW,315,6.0,-999.0,46,0.00,,,0.20,563,Wunderground v.1.15,2013-01-17 22:26:00,
2013-01-18 09:29:00,90.6,67.0,29.58,NW,311,6.0,6.0,46,0.00,,,0.00,608,Wunderground v.1.15,2013-01-17 22:29:00,
2013-01-18 09:31:00,88.3,64.9,29.58,NW,315,6.0,-999.0,46,0.00,,,0.20,563,Wunderground v.1.15,2013-01-17 22:31:00,
2013-01-18 09:36:00,88.3,64.9,29.58,NW,315,6.0,-999.0,46,0.00,,,0.20,563,Wunderground v.1.15,2013-01-17 22:36:00,
2013-01-18 09:39:00,91.7,67.3,29.58,North,5,6.0,6.0,45,0.00,,,0.00,645,Wunderground v.1.15,2013-01-17 22:39:00,
2013-01-18 09:41:00,88.3,64.9,29.58,NW,315,6.0,-999.0,46,0.00,,,0.20,563,Wunderground v.1.15,2013-01-17 22:41:00,
2013-01-18 09:44:00,93.1,67.3,29.58,North,355,5.0,6.0,43,0.00,,,0.00,656,Wunderground v.1.15,2013-01-17 22:44:00,
2013-01-18 09:46:00,92.8,62.7,29.58,NW,315,6.0,-999.0,37,0.00,,,0.20,661,Wunderground v.1.15,2013-01-17 22:46:00,
2013-01-18 09:51:00,92.8,62.7,29.58,NW,315,6.0,-999.0,37,0.00,,,0.20,661,Wunderground v.1.15,2013-01-17 22:51:00,
2013-01-18 09:54:00,94.2,65.4,29.58,NW,315,5.0,5.0,39,0.00,,,0.00,687,Wunderground v.1.15,2013-01-17 22:54:00,
2013-01-18 09:56:00,92.8,62.7,29.58,NW,315,6.0,-999.0,37,0.00,,,0.20,661,Wunderground v.1.15,2013-01-17 22:56:00,
2013-01-18 09:59:00,94.9,64.6,29.58,WNW,286,6.0,12.0,37,0.00,,,0.00,701,Wunderground v.1.15,2013-01-17 22:59:00,
2013-01-18 10:01:00,92.8,62.7,29.58,NW,315,6.0,-999.0,37,0.00,,,0.20,661,Wunderground v.1.15,2013-01-17 23:01:00,
2013-01-18 10:04:00,95.7,65.3,29.58,West,266,6.0,7.0,37,0.00,,,0.00,710,Wunderground v.1.15,2013-01-17 23:04:00,
2013-01-18 10:06:00,92.8,62.7,29.58,NW,315,6.0,-999.0,37,0.00,,,0.20,661,Wunderground v.1.15,2013-01-17 23:06:00,
2013-01-18 10:09:00,96.2,64.1,29.58,WNW,284,6.0,8.0,35,0.00,,,0.00,733,Wunderground v.1.15,2013-01-17 23:09:00,
2013-01-18 10:11:00,92.8,62.7,29.58,NW,315,6.0,-999.0,37,0.00,,,0.20,661,Wunderground v.1.15,2013-01-17 23:11:00,
2013-01-18 10:14:00,96.6,64.5,29.58,NNW,348,6.0,10.0,35,0.00,,,0.00,738,Wunderground v.1.15,2013-01-17 23:14:00,
2013-01-18 10:16:00,96.6,61.0,29.58,NW,315,7.0,-999.0,31,0.00,,,0.20,738,Wunderground v.1.15,2013-01-17 23:16:00,
2013-01-18 10:21:00,96.6,61.0,29.58,NW,315,7.0,-999.0,31,0.00,,,0.20,738,Wunderground v.1.15,2013-01-17 23:21:00,
2013-01-18 10:24:00,97.6,63.6,29.58,WNW,292,8.0,12.0,33,0.00,,,0.00,759,Wunderground v.1.15,2013-01-17 23:24:00,
2013-01-18 10:26:00,96.6,61.0,29.58,NW,315,7.0,-999.0,31,0.00,,,0.20,738,Wunderground v.1.15,2013-01-17 23:26:00,
2013-01-18 10:29:00,98.1,62.3,29.58,NW,304,8.0,12.0,31,0.00,,,0.00,772,Wunderground v.1.15,2013-01-17 23:29:00,
2013-01-18 10:31:00,96.6,61.0,29.58,NW,315,7.0,-999.0,31,0.00,,,0.20,738,Wunderground v.1.15,2013-01-17 23:31:00,
2013-01-18 10:36:00,96.6,61.0,29.58,NW,315,7.0,-999.0,31,0.00,,,0.20,738,Wunderground v.1.15,2013-01-17 23:36:00,
2013-01-18 10:39:00,99.2,61.4,29.58,NNW,336,8.0,11.0,29,0.00,,,0.00,807,Wunderground v.1.15,2013-01-17 23:39:00,
2013-01-18 10:41:00,96.6,61.0,29.58,NW,315,7.0,-999.0,31,0.00,,,0.20,738,Wunderground v.1.15,2013-01-17 23:41:00,
2013-01-18 10:44:00,99.6,61.7,29.58,WNW,301,8.0,16.0,29,0.00,,,0.00,817,Wunderground v.1.15,2013-01-17 23:44:00,
2013-01-18 10:46:00,99.5,60.6,29.58,NW,315,8.0,-999.0,28,0.00,,,0.20,815,Wunderground v.1.15,2013-01-17 23:46:00,
2013-01-18 10:49:00,99.6,61.7,29.58,WNW,285,9.0,16.0,29,0.00,,,0.00,828,Wunderground v.1.15,2013-01-17 23:49:00,
2013-01-18 10:51:00,99.5,60.6,29.58,NW,315,8.0,-999.0,28,0.00,,,0.20,815,Wunderground v.1.15,2013-01-17 23:51:00,
2013-01-18 10:56:00,99.5,60.6,29.58,NW,315,8.0,-999.0,28,0.00,,,0.20,815,Wunderground v.1.15,2013-01-17 23:56:00,
2013-01-18 10:59:00,100.9,61.8,29.58,NW,316,8.0,9.0,28,0.00,,,0.00,854,Wunderground v.1.15,2013-01-17 23:59:00,
2013-01-18 11:01:00,99.5,60.6,29.58,NW,315,8.0,-999.0,28,0.00,,,0.20,815,Wunderground v.1.15,2013-01-18 00:01:00,
2013-01-18 11:04:00,101.5,61.3,29.58,WNW,284,8.0,8.0,27,0.00,,,0.00,865,Wunderground v.1.15,2013-01-18 00:04:00,
2013-01-18 11:06:00,99.5,60.6,29.58,NW,315,8.0,-999.0,28,0.00,,,0.20,815,Wunderground v.1.15,2013-01-18 00:06:00,
2013-01-18 11:09:00,101.5,60.2,29.58,WNW,290,9.0,9.0,26,0.00,,,0.00,868,Wunderground v.1.15,2013-01-18 00:09:00,
2013-01-18 11:11:00,99.5,60.6,29.58,NW,315,8.0,-999.0,28,0.00,,,0.20,815,Wunderground v.1.15,2013-01-18 00:11:00,
2013-01-18 11:16:00,101.7,59.3,29.58,WNW,293,10.0,-999.0,25,0.00,,,0.20,882,Wunderground v.1.15,2013-01-18 00:16:00,
2013-01-18 11:19:00,101.8,59.4,29.58,WNW,289,11.0,12.0,25,0.00,,,0.00,891,Wunderground v.1.15,2013-01-18 00:19:00,
2013-01-18 11:21:00,101.7,59.3,29.58,WNW,293,10.0,-999.0,25,0.00,,,0.20,882,Wunderground v.1.15,2013-01-18 00:21:00,
2013-01-18 11:24:00,101.7,59.3,29.58,WNW,303,11.0,11.0,25,0.00,,,0.00,900,Wunderground v.1.15,2013-01-18 00:24:00,
2013-01-18 11:26:00,101.7,59.3,29.58,WNW,293,10.0,-999.0,25,0.00,,,0.20,882,Wunderground v.1.15,2013-01-18 00:26:00,
2013-01-18 11:29:00,103.1,60.5,29.58,NE,56,10.0,12.0,25,0.00,,,0.00,904,Wunderground v.1.15,2013-01-18 00:29:00,
2013-01-18 11:31:00,101.7,59.3,29.58,WNW,293,10.0,-999.0,25,0.00,,,0.20,882,Wunderground v.1.15,2013-01-18 00:31:00,
2013-01-18 11:36:00,101.7,59.3,29.58,WNW,293,10.0,-999.0,25,0.00,,,0.20,882,Wunderground v.1.15,2013-01-18 00:36:00,
2013-01-18 11:39:00,102.9,60.3,29.58,NNW,331,11.0,12.0,25,0.00,,,0.00,926,Wunderground v.1.15,2013-01-18 00:39:00,
2013-01-18 11:41:00,101.7,59.3,29.58,WNW,293,10.0,-999.0,25,0.00,,,0.20,882,Wunderground v.1.15,2013-01-18 00:41:00,
2013-01-18 11:44:00,103.7,59.8,29.58,NW,304,10.0,14.0,24,0.00,,,0.00,930,Wunderground v.1.15,2013-01-18 00:44:00,
2013-01-18 11:46:00,103.5,60.8,29.58,WNW,293,10.0,-999.0,25,0.00,,,0.20,929,Wunderground v.1.15,2013-01-18 00:46:00,
2013-01-18 11:51:00,103.5,60.8,29.58,WNW,293,10.0,-999.0,25,0.00,,,0.20,929,Wunderground v.1.15,2013-01-18 00:51:00,
2013-01-18 11:54:00,103.8,59.9,29.58,West,281,11.0,11.0,24,0.00,,,0.00,942,Wunderground v.1.15,2013-01-18 00:54:00,
2013-01-18 11:56:00,103.5,60.8,29.58,WNW,293,10.0,-999.0,25,0.00,,,0.20,929,Wunderground v.1.15,2013-01-18 00:56:00,
2013-01-18 11:59:00,104.4,61.6,29.58,WSW,249,10.0,11.0,25,0.00,,,0.00,947,Wunderground v.1.15,2013-01-18 00:59:00,
2013-01-18 12:01:00,103.5,60.8,29.58,WNW,293,10.0,-999.0,25,0.00,,,0.20,929,Wunderground v.1.15,2013-01-18 01:01:00,
2013-01-18 12:04:00,105.7,60.3,29.58,West,281,8.0,8.0,23,0.00,,,0.00,954,Wunderground v.1.15,2013-01-18 01:04:00,
2013-01-18 12:06:00,103.5,60.8,29.58,WNW,293,10.0,-999.0,25,0.00,,,0.20,929,Wunderground v.1.15,2013-01-18 01:06:00,
2013-01-18 12:09:00,105.9,60.5,29.58,NW,320,8.0,8.0,23,0.00,,,0.00,967,Wunderground v.1.15,2013-01-18 01:09:00,
2013-01-18 12:11:00,103.5,60.8,29.58,WNW,293,10.0,-999.0,25,0.00,,,0.20,929,Wunderground v.1.15,2013-01-18 01:11:00,
2013-01-18 12:14:00,105.4,60.0,29.58,WNW,301,10.0,13.0,23,0.00,,,0.00,967,Wunderground v.1.15,2013-01-18 01:14:00,
2013-01-18 12:16:00,105.6,60.2,29.58,NW,315,10.0,-999.0,23,0.00,,,0.20,964,Wunderground v.1.15,2013-01-18 01:16:00,
2013-01-18 12:21:00,105.6,60.2,29.58,NW,315,10.0,-999.0,23,0.00,,,0.20,964,Wunderground v.1.15,2013-01-18 01:21:00,
2013-01-18 12:24:00,105.9,60.5,29.58,WNW,299,10.0,16.0,23,0.00,,,0.00,970,Wunderground v.1.15,2013-01-18 01:24:00,
2013-01-18 12:26:00,105.6,60.2,29.58,NW,315,10.0,-999.0,23,0.00,,,0.20,964,Wunderground v.1.15,2013-01-18 01:26:00,
2013-01-18 12:29:00,105.9,60.5,29.58,NW,306,10.0,16.0,23,0.00,,,0.00,976,Wunderground v.1.15,2013-01-18 01:29:00,
2013-01-18 12:31:00,105.6,60.2,29.58,NW,315,10.0,-999.0,23,0.00,,,0.20,964,Wunderground v.1.15,2013-01-18 01:31:00,
2013-01-18 12:36:00,105.6,60.2,29.58,NW,315,10.0,-999.0,23,0.00,,,0.20,964,Wunderground v.1.15,2013-01-18 01:36:00,
2013-01-18 12:39:00,106.0,60.5,29.58,WNW,301,10.0,13.0,23,0.00,,,0.00,979,Wunderground v.1.15,2013-01-18 01:39:00,
2013-01-18 12:41:00,105.6,60.2,29.58,NW,315,10.0,-999.0,23,0.00,,,0.20,964,Wunderground v.1.15,2013-01-18 01:41:00,
2013-01-18 12:44:00,107.1,60.2,29.58,NW,304,9.0,9.0,22,0.00,,,0.00,979,Wunderground v.1.15,2013-01-18 01:44:00,
2013-01-18 12:46:00,106.8,60.0,29.58,NW,315,9.0,-999.0,22,0.00,,,0.20,978,Wunderground v.1.15,2013-01-18 01:46:00,
2013-01-18 12:49:00,107.3,60.4,29.58,NW,321,9.0,9.0,22,0.00,,,0.00,977,Wunderground v.1.15,2013-01-18 01:49:00,
2013-01-18 12:51:00,106.8,60.0,29.58,NW,315,9.0,-999.0,22,0.00,,,0.20,978,Wunderground v.1.15,2013-01-18 01:51:00,
2013-01-18 12:54:00,107.9,60.9,29.58,NW,325,9.0,9.0,22,0.00,,,0.00,976,Wunderground v.1.15,2013-01-18 01:54:00,
2013-01-18 12:56:00,106.8,60.0,29.58,NW,315,9.0,-999.0,22,0.00,,,0.20,978,Wunderground v.1.15,2013-01-18 01:56:00,
2013-01-18 13:01:00,106.8,60.0,29.58,NW,315,9.0,-999.0,22,0.00,,,0.20,978,Wunderground v.1.15,2013-01-18 02:01:00,
2013-01-18 13:04:00,107.7,60.7,29.58,North,9,8.0,8.0,22,0.00,,,0.00,976,Wunderground v.1.15,2013-01-18 02:04:00,
2013-01-18 13:06:00,106.8,60.0,29.58,NW,315,9.0,-999.0,22,0.00,,,0.20,978,Wunderground v.1.15,2013-01-18 02:06:00,
2013-01-18 13:09:00,108.0,60.9,29.58,NW,326,8.0,12.0,22,0.00,,,0.00,976,Wunderground v.1.15,2013-01-18 02:09:00,
2013-01-18 13:11:00,106.8,60.0,29.58,NW,315,9.0,-999.0,22,0.00,,,0.20,978,Wunderground v.1.15,2013-01-18 02:11:00,
2013-01-18 13:14:00,108.5,60.0,29.58,NW,307,8.0,12.0,21,0.00,,,0.00,977,Wunderground v.1.15,2013-01-18 02:14:00,
2013-01-18 13:16:00,108.4,60.0,29.58,NW,315,8.0,-999.0,21,0.00,,,0.20,977,Wunderground v.1.15,2013-01-18 02:16:00,
2013-01-18 13:19:00,109.2,60.6,29.58,WNW,295,8.0,12.0,21,0.00,,,0.00,981,Wunderground v.1.15,2013-01-18 02:19:00,
2013-01-18 13:21:00,108.4,60.0,29.58,NW,315,8.0,-999.0,21,0.00,,,0.20,977,Wunderground v.1.15,2013-01-18 02:21:00,
2013-01-18 13:26:00,108.4,60.0,29.58,NW,315,8.0,-999.0,21,0.00,,,0.20,977,Wunderground v.1.15,2013-01-18 02:26:00,
2013-01-18 13:29:00,108.6,60.1,29.58,NNW,343,8.0,11.0,21,0.00,,,0.00,974,Wunderground v.1.15,2013-01-18 02:29:00,
2013-01-18 13:31:00,108.4,60.0,29.58,NW,315,8.0,-999.0,21,0.00,,,0.20,977,Wunderground v.1.15,2013-01-18 02:31:00,
2013-01-18 13:36:00,108.4,60.0,29.58,NW,315,8.0,-999.0,21,0.00,,,0.20,977,Wunderground v.1.15,2013-01-18 02:36:00,
2013-01-18 13:39:00,109.6,60.9,29.58,NW,319,7.0,12.0,21,0.00,,,0.00,974,Wunderground v.1.15,2013-01-18 02:39:00,
2013-01-18 13:41:00,108.4,60.0,29.58,NW,315,8.0,-999.0,21,0.00,,,0.20,977,Wunderground v.1.15,2013-01-18 02:41:00,
2013-01-18 13:44:00,109.6,59.6,29.58,NW,317,8.0,8.0,20,0.00,,,0.00,969,Wunderground v.1.15,2013-01-18 02:44:00,
2013-01-18 13:46:00,109.5,58.1,29.58,WNW,293,8.0,-999.0,19,0.00,,,0.20,965,Wunderground v.1.15,2013-01-18 02:46:00,
2013-01-18 13:49:00,109.0,60.5,29.58,NW,305,8.0,10.0,21,0.00,,,0.00,965,Wunderground v.1.15,2013-01-18 02:49:00,
2013-01-18 13:51:00,109.5,58.1,29.58,WNW,293,8.0,-999.0,19,0.00,,,0.20,965,Wunderground v.1.15,2013-01-18 02:51:00,
2013-01-18 13:54:00,109.7,61.0,29.58,NNW,346,8.0,8.0,21,0.00,,,0.00,956,Wunderground v.1.15,2013-01-18 02:54:00,
2013-01-18 13:56:00,109.5,58.1,29.58,WNW,293,8.0,-999.0,19,0.00,,,0.20,965,Wunderground v.1.15,2013-01-18 02:56:00,
2013-01-18 14:01:00,109.5,58.1,29.58,WNW,293,8.0,-999.0,19,0.00,,,0.20,965,Wunderground v.1.15,2013-01-18 03:01:00,
2013-01-18 14:04:00,111.5,59.7,29.58,NNW,330,7.0,7.0,19,0.00,,,0.00,946,Wunderground v.1.15,2013-01-18 03:04:00,
2013-01-18 14:06:00,109.5,58.1,29.58,WNW,293,8.0,-999.0,19,0.00,,,0.20,965,Wunderground v.1.15,2013-01-18 03:06:00,
2013-01-18 14:09:00,111.4,61.0,29.58,West,280,6.0,7.0,20,0.00,,,0.00,937,Wunderground v.1.15,2013-01-18 03:09:00,
2013-01-18 14:11:00,109.5,58.1,29.58,WNW,293,8.0,-999.0,19,0.00,,,0.20,965,Wunderground v.1.15,2013-01-18 03:11:00,
2013-01-18 14:16:00,111.8,59.9,29.58,NW,315,6.0,-999.0,19,0.00,,,0.20,908,Wunderground v.1.15,2013-01-18 03:16:00,
2013-01-18 14:19:00,112.2,60.2,29.58,NNW,341,5.0,7.0,19,0.00,,,0.00,863,Wunderground v.1.15,2013-01-18 03:19:00,
2013-01-18 14:21:00,111.8,59.9,29.58,NW,315,6.0,-999.0,19,0.00,,,0.20,908,Wunderground v.1.15,2013-01-18 03:21:00,
2013-01-18 14:24:00,112.4,60.4,29.58,West,281,5.0,10.0,19,0.00,,,0.00,853,Wunderground v.1.15,2013-01-18 03:24:00,
2013-01-18 14:26:00,111.8,59.9,29.58,NW,315,6.0,-999.0,19,0.00,,,0.20,908,Wunderground v.1.15,2013-01-18 03:26:00,
2013-01-18 14:31:00,111.8,59.9,29.58,NW,315,6.0,-999.0,19,0.00,,,0.20,908,Wunderground v.1.15,2013-01-18 03:31:00,
2013-01-18 14:34:00,111.3,58.0,29.58,West,263,6.0,6.0,18,0.00,,,0.00,874,Wunderground v.1.15,2013-01-18 03:34:00,
2013-01-18 14:36:00,111.8,59.9,29.58,NW,315,6.0,-999.0,19,0.00,,,0.20,908,Wunderground v.1.15,2013-01-18 03:36:00,
2013-01-18 14:39:00,112.4,60.4,29.58,SW,235,5.0,8.0,19,0.00,,,0.00,844,Wunderground v.1.15,2013-01-18 03:39:00,
2013-01-18 14:41:00,111.8,59.9,29.58,NW,315,6.0,-999.0,19,0.00,,,0.20,908,Wunderground v.1.15,2013-01-18 03:41:00,
2013-01-18 14:44:00,112.0,58.6,29.58,NNW,328,7.0,7.0,18,0.00,,,0.00,847,Wunderground v.1.15,2013-01-18 03:44:00,
2013-01-18 14:46:00,112.0,58.6,29.58,WNW,293,6.0,-999.0,18,0.00,,,0.20,853,Wunderground v.1.15,2013-01-18 03:46:00,
2013-01-18 14:49:00,112.4,60.4,29.58,West,271,7.0,7.0,19,0.00,,,0.00,861,Wunderground v.1.15,2013-01-18 03:49:00,
2013-01-18 14:51:00,112.0,58.6,29.58,WNW,293,6.0,-999.0,18,0.00,,,0.20,853,Wunderground v.1.15,2013-01-18 03:51:00,
2013-01-18 14:54:00,111.8,59.9,29.58,West,271,6.0,6.0,19,0.00,,,0.00,824,Wunderground v.1.15,2013-01-18 03:54:00,
2013-01-18 14:56:00,112.0,58.6,29.58,WNW,293,6.0,-999.0,18,0.00,,,0.20,853,Wunderground v.1.15,2013-01-18 03:56:00,
2013-01-18 15:01:00,112.0,58.6,29.58,WNW,293,6.0,-999.0,18,0.00,,,0.20,853,Wunderground v.1.15,2013-01-18 04:01:00,
2013-01-18 15:04:00,113.8,60.0,29.58,NNW,327,4.0,9.0,18,0.00,,,0.00,840,Wunderground v.1.15,2013-01-18 04:04:00,
2013-01-18 15:06:00,112.0,58.6,29.58,WNW,293,6.0,-999.0,18,0.00,,,0.20,853,Wunderground v.1.15,2013-01-18 04:06:00,
2013-01-18 15:09:00,113.6,59.9,29.58,NW,311,5.0,9.0,18,0.00,,,0.00,826,Wunderground v.1.15,2013-01-18 04:09:00,
2013-01-18 15:11:00,112.0,58.6,29.58,WNW,293,6.0,-999.0,18,0.00,,,0.20,853,Wunderground v.1.15,2013-01-18 04:11:00,
2013-01-18 15:14:00,113.5,59.8,29.58,NW,321,5.0,8.0,18,0.00,,,0.00,814,Wunderground v.1.15,2013-01-18 04:14:00,
2013-01-18 15:16:00,113.2,59.5,29.58,NW,315,5.0,-999.0,18,0.00,,,0.20,809,Wunderground v.1.15,2013-01-18 04:16:00,
2013-01-18 15:21:00,113.2,59.5,29.58,NW,315,5.0,-999.0,18,0.00,,,0.20,809,Wunderground v.1.15,2013-01-18 04:21:00,
2013-01-18 15:24:00,112.1,58.6,29.58,NW,322,6.0,6.0,18,0.00,,,0.00,814,Wunderground v.1.15,2013-01-18 04:24:00,
2013-01-18 15:26:00,113.2,59.5,29.58,NW,315,5.0,-999.0,18,0.00,,,0.20,809,Wunderground v.1.15,2013-01-18 04:26:00,
2013-01-18 15:29:00,112.6,59.1,29.58,WNW,301,5.0,9.0,18,0.00,,,0.00,814,Wunderground v.1.15,2013-01-18 04:29:00,
2013-01-18 15:31:00,113.2,59.5,29.58,NW,315,5.0,-999.0,18,0.00,,,0.20,809,Wunderground v.1.15,2013-01-18 04:31:00,
2013-01-18 15:36:00,113.2,59.5,29.58,NW,315,5.0,-999.0,18,0.00,,,0.20,809,Wunderground v.1.15,2013-01-18 04:36:00,
2013-01-18 15:39:00,111.9,58.5,29.58,NW,315,5.0,5.0,18,0.00,,,0.00,763,Wunderground v.1.15,2013-01-18 04:39:00,
2013-01-18 15:41:00,113.2,59.5,29.58,NW,315,5.0,-999.0,18,0.00,,,0.20,809,Wunderground v.1.15,2013-01-18 04:41:00,
2013-01-18 15:44:00,112.2,58.7,29.58,West,277,5.0,5.0,18,0.00,,,0.00,745,Wunderground v.1.15,2013-01-18 04:44:00,
2013-01-18 15:46:00,112.8,57.6,29.58,NW,315,4.0,-999.0,17,0.00,,,0.20,708,Wunderground v.1.15,2013-01-18 04:46:00,
2013-01-18 15:49:00,113.1,59.5,29.58,North,355,4.0,5.0,18,0.00,,,0.00,726,Wunderground v.1.15,2013-01-18 04:49:00,
2013-01-18 15:51:00,112.8,57.6,29.58,NW,315,4.0,-999.0,17,0.00,,,0.20,708,Wunderground v.1.15,2013-01-18 04:51:00,
2013-01-18 15:56:00,112.8,57.6,29.58,NW,315,4.0,-999.0,17,0.00,,,0.20,708,Wunderground v.1.15,2013-01-18 04:56:00,
2013-01-18 15:59:00,113.9,58.5,29.58,West,272,3.0,6.0,17,0.00,,,0.00,722,Wunderground v.1.15,2013-01-18 04:59:00,
2013-01-18 16:01:00,112.8,57.6,29.58,NW,315,4.0,-999.0,17,0.00,,,0.20,708,Wunderground v.1.15,2013-01-18 05:01:00,
2013-01-18 16:04:00,111.8,58.4,29.58,NE,40,3.0,3.0,18,0.00,,,0.00,636,Wunderground v.1.15,2013-01-18 05:04:00,
2013-01-18 16:06:00,112.8,57.6,29.58,NW,315,4.0,-999.0,17,0.00,,,0.20,708,Wunderground v.1.15,2013-01-18 05:06:00,
2013-01-18 16:09:00,112.3,60.3,29.58,West,279,2.0,9.0,19,0.00,,,0.00,339,Wunderground v.1.15,2013-01-18 05:09:00,
2013-01-18 16:11:00,112.8,57.6,29.58,NW,315,4.0,-999.0,17,0.00,,,0.20,708,Wunderground v.1.15,2013-01-18 05:11:00,
2013-01-18 16:14:00,112.3,58.8,29.58,NE,34,3.0,5.0,18,0.00,,,0.00,207,Wunderground v.1.15,2013-01-18 05:14:00,
2013-01-18 16:16:00,111.8,58.4,29.58,NNW,338,3.0,-999.0,18,0.00,,,0.20,365,Wunderground v.1.15,2013-01-18 05:16:00,
2013-01-18 16:19:00,111.1,59.4,29.58,North,5,4.0,8.0,19,0.00,,,0.00,213,Wunderground v.1.15,2013-01-18 05:19:00,
2013-01-18 16:21:00,111.8,58.4,29.58,NNW,338,3.0,-999.0,18,0.00,,,0.20,365,Wunderground v.1.15,2013-01-18 05:21:00,
2013-01-18 16:24:00,111.2,59.4,29.58,East,91,4.0,5.0,19,0.00,,,0.00,260,Wunderground v.1.15,2013-01-18 05:24:00,
2013-01-18 16:26:00,111.8,58.4,29.58,NNW,338,3.0,-999.0,18,0.00,,,0.20,365,Wunderground v.1.15,2013-01-18 05:26:00,
2013-01-18 16:29:00,110.8,57.6,29.58,WNW,290,3.0,5.0,18,0.00,,,0.00,190,Wunderground v.1.15,2013-01-18 05:29:00,
2013-01-18 16:31:00,111.8,58.4,29.58,NNW,338,3.0,-999.0,18,0.00,,,0.20,365,Wunderground v.1.15,2013-01-18 05:31:00,
2013-01-18 16:36:00,111.8,58.4,29.58,NNW,338,3.0,-999.0,18,0.00,,,0.20,365,Wunderground v.1.15,2013-01-18 05:36:00,
2013-01-18 16:39:00,110.4,58.8,29.58,WNW,289,4.0,6.0,19,0.00,,,0.00,520,Wunderground v.1.15,2013-01-18 05:39:00,
2013-01-18 16:41:00,111.8,58.4,29.58,NNW,338,3.0,-999.0,18,0.00,,,0.20,365,Wunderground v.1.15,2013-01-18 05:41:00,
2013-01-18 16:44:00,110.6,59.0,29.58,NNW,328,5.0,5.0,19,0.00,,,0.00,237,Wunderground v.1.15,2013-01-18 05:44:00,
2013-01-18 16:46:00,110.1,60.0,29.58,NW,315,5.0,-999.0,20,0.00,,,0.20,207,Wunderground v.1.15,2013-01-18 05:46:00,
2013-01-18 16:49:00,110.3,57.2,29.58,WNW,288,5.0,6.0,18,0.00,,,0.00,178,Wunderground v.1.15,2013-01-18 05:49:00,
2013-01-18 16:51:00,110.1,60.0,29.58,NW,315,5.0,-999.0,20,0.00,,,0.20,207,Wunderground v.1.15,2013-01-18 05:51:00,
2013-01-18 16:54:00,109.4,58.0,29.58,WNW,292,5.0,5.0,19,0.00,,,0.00,128,Wunderground v.1.15,2013-01-18 05:54:00,
2013-01-18 16:56:00,110.1,60.0,29.58,NW,315,5.0,-999.0,20,0.00,,,0.20,207,Wunderground v.1.15,2013-01-18 05:56:00,
2013-01-18 16:59:00,108.8,58.9,29.58,WNW,298,6.0,6.0,20,0.00,,,0.00,130,Wunderground v.1.15,2013-01-18 05:59:00,
2013-01-18 17:01:00,110.1,60.0,29.58,NW,315,5.0,-999.0,20,0.00,,,0.20,207,Wunderground v.1.15,2013-01-18 06:01:00,
2013-01-18 17:06:00,110.1,60.0,29.58,NW,315,5.0,-999.0,20,0.00,,,0.20,207,Wunderground v.1.15,2013-01-18 06:06:00,
2013-01-18 17:09:00,110.0,59.9,29.58,NW,325,4.0,5.0,20,0.00,,,0.00,229,Wunderground v.1.15,2013-01-18 06:09:00,
2013-01-18 17:11:00,110.1,60.0,29.58,NW,315,5.0,-999.0,20,0.00,,,0.20,207,Wunderground v.1.15,2013-01-18 06:11:00,
2013-01-18 17:14:00,110.0,59.9,29.58,NE,41,5.0,6.0,20,0.00,,,0.00,163,Wunderground v.1.15,2013-01-18 06:14:00,
2013-01-18 17:16:00,109.8,58.3,29.58,NW,315,4.0,-999.0,19,0.00,,,0.20,337,Wunderground v.1.15,2013-01-18 06:16:00,
2013-01-18 17:19:00,109.9,59.8,29.58,NNW,337,4.0,6.0,20,0.00,,,0.00,494,Wunderground v.1.15,2013-01-18 06:19:00,
2013-01-18 17:21:00,109.8,58.3,29.58,NW,315,4.0,-999.0,19,0.00,,,0.20,337,Wunderground v.1.15,2013-01-18 06:21:00,
2013-01-18 17:26:00,109.8,58.3,29.58,NW,315,4.0,-999.0,19,0.00,,,0.20,337,Wunderground v.1.15,2013-01-18 06:26:00,
2013-01-18 17:29:00,111.2,59.4,29.58,North,5,5.0,7.0,19,0.00,,,0.00,499,Wunderground v.1.15,2013-01-18 06:29:00,
2013-01-18 17:31:00,109.8,58.3,29.58,NW,315,4.0,-999.0,19,0.00,,,0.20,337,Wunderground v.1.15,2013-01-18 06:31:00,
2013-01-18 17:36:00,109.8,58.3,29.58,NW,315,4.0,-999.0,19,0.00,,,0.20,337,Wunderground v.1.15,2013-01-18 06:36:00,
2013-01-18 17:39:00,112.7,60.7,29.58,North,350,3.0,5.0,19,0.00,,,0.00,459,Wunderground v.1.15,2013-01-18 06:39:00,
2013-01-18 17:41:00,109.8,58.3,29.58,NW,315,4.0,-999.0,19,0.00,,,0.20,337,Wunderground v.1.15,2013-01-18 06:41:00,
2013-01-18 17:44:00,112.3,60.3,29.58,NW,304,4.0,7.0,19,0.00,,,0.00,436,Wunderground v.1.15,2013-01-18 06:44:00,
2013-01-18 17:46:00,112.0,60.1,29.58,NW,315,4.0,-999.0,19,0.00,,,0.20,433,Wunderground v.1.15,2013-01-18 06:46:00,
2013-01-18 17:49:00,111.7,59.8,29.58,NW,313,5.0,7.0,19,0.00,,,0.00,406,Wunderground v.1.15,2013-01-18 06:49:00,
2013-01-18 17:51:00,112.0,60.1,29.58,NW,315,4.0,-999.0,19,0.00,,,0.20,433,Wunderground v.1.15,2013-01-18 06:51:00,
2013-01-18 17:56:00,112.0,60.1,29.58,NW,315,4.0,-999.0,19,0.00,,,0.20,433,Wunderground v.1.15,2013-01-18 06:56:00,
2013-01-18 17:59:00,112.0,60.1,29.58,North,5,5.0,5.0,19,0.00,,,0.00,362,Wunderground v.1.15,2013-01-18 06:59:00,
2013-01-18 18:01:00,112.0,60.1,29.58,NW,315,4.0,-999.0,19,0.00,,,0.20,433,Wunderground v.1.15,2013-01-18 07:01:00,
2013-01-18 18:04:00,111.8,58.4,29.58,NNW,342,4.0,4.0,18,0.00,,,0.00,345,Wunderground v.1.15,2013-01-18 07:04:00,
2013-01-18 18:06:00,112.0,60.1,29.58,NW,315,4.0,-999.0,19,0.00,,,0.20,433,Wunderground v.1.15,2013-01-18 07:06:00,
2013-01-18 18:11:00,112.0,60.1,29.58,NW,315,4.0,-999.0,19,0.00,,,0.20,433,Wunderground v.1.15,2013-01-18 07:11:00,
2013-01-18 18:14:00,111.4,59.6,29.58,NNW,334,4.0,8.0,19,0.00,,,0.00,244,Wunderground v.1.15,2013-01-18 07:14:00,
2013-01-18 18:16:00,111.0,60.7,29.58,NNW,338,4.0,-999.0,20,0.00,,,0.20,230,Wunderground v.1.15,2013-01-18 07:16:00,
2013-01-18 18:19:00,110.5,60.3,29.58,NNE,21,4.0,8.0,20,0.00,,,0.00,86,Wunderground v.1.15,2013-01-18 07:19:00,
2013-01-18 18:21:00,111.0,60.7,29.58,NNW,338,4.0,-999.0,20,0.00,,,0.20,230,Wunderground v.1.15,2013-01-18 07:21:00,
2013-01-18 18:26:00,111.0,60.7,29.58,NNW,338,4.0,-999.0,20,0.00,,,0.20,230,Wunderground v.1.15,2013-01-18 07:26:00,
2013-01-18 18:29:00,109.6,59.6,29.58,North,355,4.0,4.0,20,0.00,,,0.00,162,Wunderground v.1.15,2013-01-18 07:29:00,
2013-01-18 18:31:00,111.0,60.7,29.58,NNW,338,4.0,-999.0,20,0.00,,,0.20,230,Wunderground v.1.15,2013-01-18 07:31:00,
2013-01-18 18:36:00,111.0,60.7,29.58,NNW,338,4.0,-999.0,20,0.00,,,0.20,230,Wunderground v.1.15,2013-01-18 07:36:00,
2013-01-18 18:39:00,108.8,58.9,29.58,NW,305,6.0,6.0,20,0.00,,,0.00,91,Wunderground v.1.15,2013-01-18 07:39:00,
2013-01-18 18:41:00,111.0,60.7,29.58,NNW,338,4.0,-999.0,20,0.00,,,0.20,230,Wunderground v.1.15,2013-01-18 07:41:00,
2013-01-18 18:44:00,108.3,59.9,29.58,NNW,342,4.0,4.0,21,0.00,,,0.00,84,Wunderground v.1.15,2013-01-18 07:44:00,
2013-01-18 18:46:00,108.2,61.1,29.58,NNW,338,5.0,-999.0,22,0.00,,,0.20,71,Wunderground v.1.15,2013-01-18 07:46:00,
2013-01-18 18:49:00,107.8,60.8,29.58,NNW,331,4.0,5.0,22,0.00,,,0.00,47,Wunderground v.1.15,2013-01-18 07:49:00,
2013-01-18 18:51:00,108.2,61.1,29.58,NNW,338,5.0,-999.0,22,0.00,,,0.20,71,Wunderground v.1.15,2013-01-18 07:51:00,
2013-01-18 18:54:00,107.1,60.2,29.58,NE,36,5.0,5.0,22,0.00,,,0.00,25,Wunderground v.1.15,2013-01-18 07:54:00,
2013-01-18 18:56:00,108.2,61.1,29.58,NNW,338,5.0,-999.0,22,0.00,,,0.20,71,Wunderground v.1.15,2013-01-18 07:56:00,
2013-01-18 19:01:00,108.2,61.1,29.58,NNW,338,5.0,-999.0,22,0.00,,,0.20,71,Wunderground v.1.15,2013-01-18 08:01:00,
2013-01-18 19:04:00,106.0,60.5,29.58,North,349,4.0,4.0,23,0.00,,,0.00,14,Wunderground v.1.15,2013-01-18 08:04:00,
2013-01-18 19:06:00,108.2,61.1,29.58,NNW,338,5.0,-999.0,22,0.00,,,0.20,71,Wunderground v.1.15,2013-01-18 08:06:00,
2013-01-18 19:09:00,105.6,61.4,29.58,SW,225,4.0,9.0,24,0.00,,,0.00,5,Wunderground v.1.15,2013-01-18 08:09:00,
2013-01-18 19:11:00,108.2,61.1,29.58,NNW,338,5.0,-999.0,22,0.00,,,0.20,71,Wunderground v.1.15,2013-01-18 08:11:00,
2013-01-18 19:14:00,102.2,65.8,29.58,WSW,242,7.0,7.0,31,0.00,,,0.00,0,Wunderground v.1.15,2013-01-18 08:14:00,
2013-01-18 19:16:00,100.9,81.2,29.58,SW,225,6.0,-999.0,54,0.00,,,0.20,4,Wunderground v.1.15,2013-01-18 08:16:00,
2013-01-18 19:21:00,100.9,81.2,29.58,SW,225,6.0,-999.0,54,0.00,,,0.20,4,Wunderground v.1.15,2013-01-18 08:21:00,
2013-01-18 19:24:00,94.6,70.6,29.58,SW,223,6.0,6.0,46,0.00,,,0.00,0,Wunderground v.1.15,2013-01-18 08:24:00,
2013-01-18 19:26:00,100.9,81.2,29.58,SW,225,6.0,-999.0,54,0.00,,,0.20,4,Wunderground v.1.15,2013-01-18 08:26:00,
2013-01-18 19:29:00,89.3,70.5,29.58,SW,231,7.0,7.0,54,0.00,,,0.00,0,Wunderground v.1.15,2013-01-18 08:29:00,
2013-01-18 19:31:00,100.9,81.2,29.58,SW,225,6.0,-999.0,54,0.00,,,0.20,4,Wunderground v.1.15,2013-01-18 08:31:00,
2013-01-18 19:36:00,100.9,81.2,29.58,SW,225,6.0,-999.0,54,0.00,,,0.20,4,Wunderground v.1.15,2013-01-18 08:36:00,
2013-01-18 19:39:00,85.4,73.2,29.58,SSW,209,5.0,7.0,67,0.38,,,0.02,0,Wunderground v.1.15,2013-01-18 08:39:00,
2013-01-18 19:41:00,100.9,81.2,29.58,SW,225,6.0,-999.0,54,0.00,,,0.20,4,Wunderground v.1.15,2013-01-18 08:41:00,
2013-01-18 19:44:00,82.9,72.5,29.58,SW,220,5.0,7.0,71,0.27,,,0.05,0,Wunderground v.1.15,2013-01-18 08:44:00,
2013-01-18 19:46:00,83.9,73.1,29.58,SW,225,4.0,-999.0,70,0.17,,,0.20,0,Wunderground v.1.15,2013-01-18 08:46:00,
2013-01-18 19:51:00,83.9,73.1,29.58,SW,225,4.0,-999.0,70,0.17,,,0.20,0,Wunderground v.1.15,2013-01-18 08:51:00,
2013-01-18 19:54:00,81.0,71.1,29.58,North,11,3.0,4.0,72,2.31,,,0.14,0,Wunderground v.1.15,2013-01-18 08:54:00,
2013-01-18 19:56:00,83.9,73.1,29.58,SW,225,4.0,-999.0,70,0.17,,,0.20,0,Wunderground v.1.15,2013-01-18 08:56:00,
2013-01-18 19:59:00,81.8,71.1,29.58,ESE,117,3.0,4.0,70,0.23,,,0.17,0,Wunderground v.1.15,2013-01-18 08:59:00,
2013-01-18 20:01:00,83.9,73.1,29.58,SW,225,4.0,-999.0,70,0.17,,,0.20,0,Wunderground v.1.15,2013-01-18 09:01:00,
2013-01-18 20:04:00,81.0,69.9,29.58,ENE,65,3.0,3.0,69,0.08,,,0.17,0,Wunderground v.1.15,2013-01-18 09:04:00,
2013-01-18 20:06:00,83.9,73.1,29.58,SW,225,4.0,-999.0,70,0.17,,,0.20,0,Wunderground v.1.15,2013-01-18 09:06:00,
2013-01-18 20:09:00,81.2,71.3,29.50,NE,55,3.0,3.0,72,0.05,,,0.17,0,Wunderground v.1.15,2013-01-18 09:09:00,
2013-01-18 20:11:00,83.9,73.1,29.58,SW,225,4.0,-999.0,70,0.17,,,0.20,0,Wunderground v.1.15,2013-01-18 09:11:00,
2013-01-18 20:16:00,81.4,71.9,29.50,ENE,68,2.0,-999.0,73,0.18,,,0.20,0,Wunderground v.1.15,2013-01-18 09:16:00,
2013-01-18 20:19:00,81.7,71.8,29.50,East,81,3.0,4.0,72,0.04,,,0.18,0,Wunderground v.1.15,2013-01-18 09:19:00,
2013-01-18 20:21:00,81.4,71.9,29.50,ENE,68,2.0,-999.0,73,0.18,,,0.20,0,Wunderground v.1.15,2013-01-18 09:21:00,
2013-01-18 20:24:00,81.6,72.5,29.50,West,277,1.0,1.0,74,0.04,,,0.18,0,Wunderground v.1.15,2013-01-18 09:24:00,
2013-01-18 20:26:00,81.4,71.9,29.50,ENE,68,2.0,-999.0,73,0.18,,,0.20,0,Wunderground v.1.15,2013-01-18 09:26:00,
2013-01-18 20:29:00,81.6,72.1,29.50,NNW,331,2.0,2.0,73,0.04,,,0.18,0,Wunderground v.1.15,2013-01-18 09:29:00,
2013-01-18 20:31:00,81.4,71.9,29.50,ENE,68,2.0,-999.0,73,0.18,,,0.20,0,Wunderground v.1.15,2013-01-18 09:31:00,
2013-01-18 20:36:00,81.4,71.9,29.50,ENE,68,2.0,-999.0,73,0.18,,,0.20,0,Wunderground v.1.15,2013-01-18 09:36:00,
2013-01-18 20:39:00,81.1,72.8,29.50,East,81,2.0,6.0,76,0.00,,,0.18,0,Wunderground v.1.15,2013-01-18 09:39:00,
2013-01-18 20:41:00,81.4,71.9,29.50,ENE,68,2.0,-999.0,73,0.18,,,0.20,0,Wunderground v.1.15,2013-01-18 09:41:00,
2013-01-18 20:44:00,81.1,72.8,29.50,NNW,335,1.0,1.0,76,0.00,,,0.18,0,Wunderground v.1.15,2013-01-18 09:44:00,
2013-01-18 20:46:00,81.3,72.2,29.50,ENE,68,1.0,-999.0,74,0.01,,,0.20,0,Wunderground v.1.15,2013-01-18 09:46:00,
2013-01-18 20:51:00,81.3,72.2,29.50,ENE,68,1.0,-999.0,74,0.01,,,0.20,0,Wunderground v.1.15,2013-01-18 09:51:00,
2013-01-18 20:54:00,81.2,73.7,29.50,NE,35,1.0,1.0,78,0.00,,,0.18,0,Wunderground v.1.15,2013-01-18 09:54:00,
2013-01-18 20:56:00,81.3,72.2,29.50,ENE,68,1.0,-999.0,74,0.01,,,0.20,0,Wunderground v.1.15,2013-01-18 09:56:00,
2013-01-18 20:59:00,81.1,72.0,29.50,ENE,57,2.0,2.0,74,0.00,,,0.18,0,Wunderground v.1.15,2013-01-18 09:59:00,
2013-01-18 21:01:00,81.3,72.2,29.50,ENE,68,1.0,-999.0,74,0.01,,,0.20,0,Wunderground v.1.15,2013-01-18 10:01:00,
2013-01-18 21:04:00,81.4,72.7,29.50,NW,325,1.0,1.0,75,0.00,,,0.18,0,Wunderground v.1.15,2013-01-18 10:04:00,
2013-01-18 21:06:00,81.3,72.2,29.50,ENE,68,1.0,-999.0,74,0.01,,,0.20,0,Wunderground v.1.15,2013-01-18 10:06:00,
2013-01-18 21:11:00,81.3,72.2,29.50,ENE,68,1.0,-999.0,74,0.01,,,0.20,0,Wunderground v.1.15,2013-01-18 10:11:00,
2013-01-18 21:14:00,82.0,72.1,29.50,NE,34,1.0,1.0,72,0.00,,,0.18,0,Wunderground v.1.15,2013-01-18 10:14:00,
2013-01-18 21:16:00,81.9,72.0,29.50,NNE,23,1.0,-999.0,72,0.00,,,0.20,0,Wunderground v.1.15,2013-01-18 10:16:00,
2013-01-18 21:19:00,82.5,73.0,29.50,NNE,19,2.0,2.0,73,0.00,,,0.18,0,Wunderground v.1.15,2013-01-18 10:19:00,
2013-01-18 21:21:00,81.9,72.0,29.50,NNE,23,1.0,-999.0,72,0.00,,,0.20,0,Wunderground v.1.15,2013-01-18 10:21:00,
2013-01-18 21:24:00,82.5,74.2,29.50,NNE,29,1.0,1.0,76,0.00,,,0.18,0,Wunderground v.1.15,2013-01-18 10:24:00,
2013-01-18 21:26:00,81.9,72.0,29.50,NNE,23,1.0,-999.0,72,0.00,,,0.20,0,Wunderground v.1.15,2013-01-18 10:26:00,
2013-01-18 21:31:00,81.9,72.0,29.50,NNE,23,1.0,-999.0,72,0.00,,,0.20,0,Wunderground v.1.15,2013-01-18 10:31:00,
2013-01-18 21:34:00,82.9,70.8,29.50,NNW,327,2.0,2.0,67,0.00,,,0.18,0,Wunderground v.1.15,2013-01-18 10:34:00,
2013-01-18 21:36:00,81.9,72.0,29.50,NNE,23,1.0,-999.0,72,0.00,,,0.20,0,Wunderground v.1.15,2013-01-18 10:36:00,
2013-01-18 21:39:00,83.4,73.4,29.50,NNW,329,2.0,2.0,72,0.00,,,0.18,0,Wunderground v.1.15,2013-01-18 10:39:00,
2013-01-18 21:41:00,81.9,72.0,29.50,NNE,23,1.0,-999.0,72,0.00,,,0.20,0,Wunderground v.1.15,2013-01-18 10:41:00,
2013-01-18 21:44:00,83.1,72.7,29.50,NNW,341,2.0,2.0,71,0.00,,,0.18,0,Wunderground v.1.15,2013-01-18 10:44:00,
2013-01-18 21:46:00,82.7,74.4,18.23,NNW,338,3.0,-999.0,76,0.01,,,0.20,0,Wunderground v.1.15,2013-01-18 10:46:00,
2013-01-18 21:49:00,82.9,73.8,29.50,SW,235,1.0,2.0,74,0.00,,,0.19,0,Wunderground v.1.15,2013-01-18 10:49:00,
2013-01-18 21:51:00,82.7,74.4,18.23,NNW,338,3.0,-999.0,76,0.01,,,0.20,0,Wunderground v.1.15,2013-01-18 10:51:00,
2013-01-18 21:56:00,82.7,74.4,18.23,NNW,338,3.0,-999.0,76,0.01,,,0.20,0,Wunderground v.1.15,2013-01-18 10:56:00,
2013-01-18 21:59:00,80.7,72.4,18.23,South,184,4.0,6.0,76,0.00,,,0.19,0,Wunderground v.1.15,2013-01-18 10:59:00,
2013-01-18 22:01:00,82.7,74.4,18.23,NNW,338,3.0,-999.0,76,0.01,,,0.20,0,Wunderground v.1.15,2013-01-18 11:01:00,
2013-01-18 22:04:00,78.0,68.6,18.23,WSW,257,6.0,13.0,73,0.04,,,0.20,0,Wunderground v.1.15,2013-01-18 11:04:00,
2013-01-18 22:06:00,82.7,74.4,18.23,NNW,338,3.0,-999.0,76,0.01,,,0.20,0,Wunderground v.1.15,2013-01-18 11:06:00,
2013-01-18 22:09:00,75.9,68.5,18.23,SW,218,7.0,13.0,78,0.04,,,0.20,0,Wunderground v.1.15,2013-01-18 11:09:00,
2013-01-18 22:11:00,82.7,74.4,18.23,NNW,338,3.0,-999.0,76,0.01,,,0.20,0,Wunderground v.1.15,2013-01-18 11:11:00,
2013-01-18 22:16:00,75.7,69.5,18.23,SW,225,7.0,-999.0,81,0.02,,,0.20,0,Wunderground v.1.15,2013-01-18 11:16:00,
2013-01-18 22:21:00,75.7,69.5,18.23,SW,225,7.0,-999.0,81,0.02,,,0.20,0,Wunderground v.1.15,2013-01-18 11:21:00,
2013-01-18 22:26:00,75.7,69.5,18.23,SW,225,7.0,-999.0,81,0.02,,,0.20,0,Wunderground v.1.15,2013-01-18 11:26:00,
2013-01-18 22:31:00,75.7,69.5,18.23,SW,225,7.0,-999.0,81,0.02,,,0.20,0,Wunderground v.1.15,2013-01-18 11:31:00,
2013-01-18 22:36:00,75.7,69.5,18.23,SW,225,7.0,-999.0,81,0.02,,,0.20,0,Wunderground v.1.15,2013-01-18 11:36:00,
2013-01-18 22:41:00,75.7,69.5,18.23,SW,225,7.0,-999.0,81,0.02,,,0.20,0,Wunderground v.1.15,2013-01-18 11:41:00,
2013-01-18 22:46:00,73.9,67.7,18.23,SW,225,8.0,-999.0,81,0.01,,,0.20,0,Wunderground v.1.15,2013-01-18 11:46:00,
2013-01-18 22:51:00,73.9,67.7,18.23,SW,225,8.0,-999.0,81,0.01,,,0.20,0,Wunderground v.1.15,2013-01-18 11:51:00,
2013-01-18 22:56:00,73.9,67.7,18.23,SW,225,8.0,-999.0,81,0.01,,,0.20,0,Wunderground v.1.15,2013-01-18 11:56:00,
2013-01-18 23:01:00,73.9,67.7,18.23,SW,225,8.0,-999.0,81,0.01,,,0.20,0,Wunderground v.1.15,2013-01-18 12:01:00,
2013-01-18 23:06:00,73.9,67.7,18.23,SW,225,8.0,-999.0,81,0.01,,,0.20,0,Wunderground v.1.15,2013-01-18 12:06:00,
2013-01-18 23:11:00,73.9,67.7,18.23,SW,225,8.0,-999.0,81,0.01,,,0.20,0,Wunderground v.1.15,2013-01-18 12:11:00,
2013-01-18 23:16:00,73.6,67.0,18.23,SW,225,8.0,-999.0,80,0.00,,,0.20,0,Wunderground v.1.15,2013-01-18 12:16:00,
2013-01-18 23:21:00,73.6,67.0,18.23,SW,225,8.0,-999.0,80,0.00,,,0.20,0,Wunderground v.1.15,2013-01-18 12:21:00,
2013-01-18 23:26:00,73.6,67.0,18.23,SW,225,8.0,-999.0,80,0.00,,,0.20,0,Wunderground v.1.15,2013-01-18 12:26:00,
2013-01-18 23:31:00,73.6,67.0,18.23,SW,225,8.0,-999.0,80,0.00,,,0.20,0,Wunderground v.1.15,2013-01-18 12:31:00,
2013-01-18 23:36:00,73.6,67.0,18.23,SW,225,8.0,-999.0,80,0.00,,,0.20,0,Wunderground v.1.15,2013-01-18 12:36:00,
2013-01-18 23:41:00,73.6,67.0,18.23,SW,225,8.0,-999.0,80,0.00,,,0.20,0,Wunderground v.1.15,2013-01-18 12:41:00,
2013-01-18 23:46:00,73.3,66.8,18.23,SW,225,8.0,-999.0,80,0.00,,,0.20,0,Wunderground v.1.15,2013-01-18 12:46:00,
2013-01-18 23:51:00,73.3,66.8,18.23,SW,225,8.0,-999.0,80,0.00,,,0.20,0,Wunderground v.1.15,2013-01-18 12:51:00,
2013-01-18 23:56:00,73.3,66.8,18.23,SW,225,8.0,-999.0,80,0.00,,,0.20,0,Wunderground v.1.15,2013-01-18 12:56:00,